Location: La Tine
(46.4708°N, 7.0525°E)
Time: 10:38:48
(UTC+00:00)

Cosmos 1634 Rocket - Pass Details

Date: 18 September 2020
Orbit: 961 x 991 km, 82.9° (Epoch: 24 October)

Event Time Altitude Azimuth Distance (km) Brightness Sun altitude
Exits shadow 19:34:24 36° 124° (SE) 1,468 4.4 -20.4°
Maximum altitude 19:35:57 43° 89° (E) 1,327 4.3 -20.6°
Drops below altitude 10° 19:41:44 10° 21° (NNE) 2,714 6.4 -21.5°
Sets 19:44:21 0° 15° (NNE) 3,668 7.2 -21.9°
